Вернуться в каталог

Gemini-Pollux

АктивенНаукаSSO
NORAD 69000·PAYLOAD·🇬🇷 Greece

Запущен May 3, 2026 с Vandenberg Space Force Base

Loading…

Ближайшие Пролёты (ближайшие 24 часа)

TLE

СвежийSource: Space-Track

Эпоха: Sep 14, 2026, 10:29 UTC

1 69000U 26100W   26257.43699000  .00001525  00000-0  15389-3 0  9999
2 69000  97.7197 153.2243 0001228  51.3093 308.8236 14.92517393 20018

Отслеживайте Gemini-Pollux в реальном времени с AllMySat

Download on the App Store